Change the Weather History Date:

Saturday, February 16, 2013

  Actual Average Record
Temperature  
Mean Temperature 87 °F -  
Max Temperature 94 °F 92 °F 98 °F (1997)
Min Temperature 80 °F 75 °F 69 °F (2001)
Cooling Degree Days 22    
Growing Degree Days 37 (Base 50)    
Moisture  
Dew Point 74 °F    
Average Humidity 67    
Maximum Humidity 89    
Minimum Humidity 44    
Precipitation  
Precipitation 0.28 in 0.03 in - ()
Sea Level Pressure  
Sea Level Pressure 29.80 in    
Wind  
Wind Speed 6 mph ()    
Max Wind Speed 14 mph    
Max Gust Speed -    
Visibility 4.5 miles    
Events Rain , Thunderstorm    
Averages and records for this station are not official NWS values.
T = Trace of Precipitation, MM = Missing Value Source: Averaged Metar Reports

Daily Weather History Graph

Daily Weather History Graph

Search for Another Location

Airport or City:

Trip Planner

Search our weather history database for the weather conditions in past years. The results will help you decide how hot, cold, wet, or windy it might be!

Date:

Astronomy

Feb. 16, 2013 Rise Set
Actual Time 6:40 AM ICT 6:22 PM ICT
Civil Twilight 6:18 AM ICT 6:44 PM ICT
Nautical Twilight 5:53 AM ICT 7:09 PM ICT
Astronomical Twilight 5:28 AM ICT 7:34 PM ICT
Moon 10:41 AM ICT (2/16) 11:38 PM ICT (2/16)
Length of Visible Light 12h 25m
Length of Day
11h 42m
Waxing Crescent, 34% of the Moon is Illuminated
Feb 16
Waxing Crescent
Feb 18
First Quarter
Feb 26
Full
Mar 5
Last Quarter
Mar 12
New

Hourly Weather History & Observations

Time (ICT) Temp. Heat Index Dew Point Humidity Pressure Visibility Wind Dir Wind Speed Gust Speed Precip Events Conditions
12:00 AM 84.2 °F 94.1 °F 77.0 °F 79% 29.86 in 3.7 mi SW 13.8 mph - N/A   Unknown
12:30 AM 84.2 °F 94.1 °F 77.0 °F 79% 29.86 in 3.7 mi SSW 9.2 mph - N/A   Unknown
1:00 AM 83 °F - 76 °F 73% 29.85 in 4 mi SSW 11.5 mph - -   Mist
1:00 AM 84.2 °F 92.3 °F 75.2 °F 74% 29.83 in 4.3 mi SSW 11.5 mph - N/A   Unknown
1:30 AM 82.4 °F 89.5 °F 75.2 °F 79% 29.83 in 4.3 mi SSW 8.1 mph - N/A   Unknown
2:00 AM 82.4 °F 90.9 °F 77.0 °F 84% 29.83 in 4.3 mi WSW 5.8 mph - N/A   Unknown
2:30 AM 82.4 °F 89.5 °F 75.2 °F 79% 29.83 in 4.3 mi SSW 4.6 mph - N/A   Unknown
3:00 AM 82.4 °F 89.5 °F 75.2 °F 79% 29.83 in 4.3 mi South 3.5 mph - N/A   Unknown
3:30 AM 82.4 °F 88.2 °F 73.4 °F 74% 29.80 in 4.3 mi South 3.5 mph - N/A   Unknown
4:00 AM 82.4 °F 89.5 °F 75.2 °F 79% 29.80 in 5.0 mi South 3.5 mph - N/A   Unknown
4:30 AM 82.4 °F 89.5 °F 75.2 °F 79% 29.80 in 5.0 mi SSE 3.5 mph - N/A   Unknown
5:00 AM 82.4 °F 89.5 °F 75.2 °F 79% 29.80 in 5.0 mi South 2.3 mph - N/A   Unknown
5:30 AM 82.4 °F 89.5 °F 75.2 °F 79% 29.80 in 5.0 mi SSE 2.3 mph - N/A   Unknown
6:00 AM 82.4 °F 89.5 °F 75.2 °F 79% 29.80 in 5.0 mi ESE 3.5 mph - N/A   Unknown
6:30 AM 80.6 °F 86.2 °F 75.2 °F 84% 29.80 in 5.0 mi ESE 8.1 mph - N/A   Mostly Cloudy
7:00 AM 81 °F - 76 °F 82% 29.85 in 4 mi SE 3.5 mph - -   Mist
7:00 AM 80.6 °F 87.1 °F 77.0 °F 89% 29.83 in 4.3 mi SE 3.5 mph - N/A   Mostly Cloudy
7:30 AM 80.6 °F 87.1 °F 77.0 °F 89% 29.83 in 3.7 mi East 4.6 mph - N/A   Unknown
8:00 AM 80.6 °F 86.2 °F 75.2 °F 84% 29.86 in 3.7 mi ESE 3.5 mph - N/A   Unknown
8:30 AM 82.4 °F 89.5 °F 75.2 °F 79% 29.86 in 4.3 mi ESE 3.5 mph - N/A   Mostly Cloudy
9:00 AM 84.2 °F 90.9 °F 73.4 °F 70% 29.86 in 4.3 mi ENE 2.3 mph - N/A   Mostly Cloudy
9:30 AM 86.0 °F 93.4 °F 73.4 °F 66% 29.89 in 5.0 mi East 3.5 mph - N/A   Mostly Cloudy
10:00 AM 86.0 °F 93.4 °F 73.4 °F 66% 29.89 in 5.0 mi SSE 5.8 mph - N/A   Mostly Cloudy
10:30 AM 87.8 °F 95.6 °F 73.4 °F 62% 29.89 in 5.0 mi SSW 4.6 mph - N/A   Mostly Cloudy
11:00 AM 87.8 °F 95.6 °F 73.4 °F 62% 29.86 in 5.0 mi East 2.3 mph - N/A   Mostly Cloudy
11:30 AM 89.6 °F 96.2 °F 71.6 °F 55% 29.86 in 5.0 mi East 3.5 mph - N/A   Mostly Cloudy
12:00 PM 89.6 °F 96.2 °F 71.6 °F 55% 29.83 in 5.6 mi SSE 8.1 mph - N/A   Mostly Cloudy
12:30 PM 89.6 °F 96.2 °F 71.6 °F 55% 29.83 in 5.6 mi ESE 4.6 mph - N/A   Mostly Cloudy
1:00 PM 90 °F - 73 °F 48% 29.82 in 6 mi ESE 4.6 mph - -   Haze
1:00 PM 89.6 °F 98.2 °F 73.4 °F 59% 29.80 in 5.6 mi ESE 4.6 mph - N/A   Mostly Cloudy
1:30 PM 91.4 °F 98.4 °F 71.6 °F 52% 29.77 in 5.6 mi ESE 10.4 mph - N/A   Mostly Cloudy
2:00 PM 89.6 °F 94.7 °F 69.8 °F 52% 29.77 in 5.6 mi North 2.3 mph - N/A   Mostly Cloudy
2:30 PM 91.4 °F 98.4 °F 71.6 °F 52% 29.74 in 5.6 mi ENE 5.8 mph - N/A   Mostly Cloudy
3:00 PM 91.4 °F 98.4 °F 71.6 °F 52% 29.74 in 5.6 mi East 9.2 mph - N/A   Mostly Cloudy
3:30 PM 93.2 °F 97.7 °F 68.0 °F 44% 29.71 in 5.6 mi East 8.1 mph - N/A   Mostly Cloudy
4:00 PM 95.0 °F 101.3 °F 69.8 °F 44% 29.71 in 5.0 mi East 3.5 mph - N/A   Mostly Cloudy
4:30 PM 95.0 °F 101.3 °F 69.8 °F 44% 29.71 in 5.0 mi ESE 10.4 mph - N/A   Mostly Cloudy
5:00 PM 93.2 °F 100.5 °F 71.6 °F 49% 29.71 in 4.3 mi East 6.9 mph - N/A   Mostly Cloudy
5:30 PM 93.2 °F 100.5 °F 71.6 °F 49% 29.74 in 4.3 mi ESE 3.5 mph - N/A   Mostly Cloudy
6:00 PM 93.2 °F 100.5 °F 71.6 °F 49% 29.74 in 3.7 mi East 4.6 mph - N/A   Mostly Cloudy
6:30 PM 91.4 °F 98.4 °F 71.6 °F 52% 29.74 in 3.7 mi ESE 2.3 mph - N/A   Mostly Cloudy
7:00 PM 90 °F - 73 °F 49% 29.76 in 3 mi South 2.3 mph - -   Haze
7:00 PM 89.6 °F 98.2 °F 73.4 °F 59% 29.74 in 3.1 mi South 2.3 mph - N/A   Haze
7:30 PM 89.6 °F 98.2 °F 73.4 °F 59% 29.74 in 3.1 mi Calm Calm - N/A   Haze
8:00 PM 89.6 °F 98.2 °F 73.4 °F 59% 29.77 in 3.1 mi West 4.6 mph - N/A   Haze
8:30 PM 87.8 °F 95.6 °F 73.4 °F 62% 29.77 in 3.1 mi WSW 8.1 mph - N/A   Haze
9:00 PM 87.8 °F 97.6 °F 75.2 °F 66% 29.77 in 3.7 mi SW 6.9 mph - N/A   Mostly Cloudy
9:30 PM 86.0 °F 95.1 °F 75.2 °F 70% 29.77 in 3.7 mi SSW 4.6 mph - N/A   Mostly Cloudy
10:00 PM 84.2 °F 92.3 °F 75.2 °F 74% 29.80 in 3.7 mi ESE 6.9 mph - N/A   Mostly Cloudy
10:30 PM 82.4 °F 89.5 °F 75.2 °F 79% 29.80 in 3.1 mi SW 3.5 mph - N/A Rain , Thunderstorm Light Thunderstorms and Rain
11:00 PM 82.4 °F 89.5 °F 75.2 °F 79% 29.80 in 5.0 mi WSW 3.5 mph - N/A   Mostly Cloudy
11:30 PM 82.4 °F 89.5 °F 75.2 °F 79% 29.80 in 5.0 mi West 3.5 mph - N/A   Mostly Cloudy